User: anonymous   Login
Location: Caltech
(34.1382°N, 118.1253°W)
Time: 22:31:04
(UTC-07:00)
Language:

RS-15 - Orbit

View from above orbital plane
View from above orbital plane
View from above satellite
View from above satellite

Ground track
Ground track

The orbit data is extracted from the following two-line orbital elements,

1 23439U 94085A   17179.56772003 -.00000054 +00000-0 -31219-3 0  9992
2 23439 064.8129 200.7610 0167016 243.8644 283.7237 11.27566961926699
Epoch (UTC): 28 June 2017 13:37:31
Eccentricity: 0.0167016
inclination: 64.8129°
perigee height: 1882 km
apogee height: 2162 km
right ascension of ascending node: 200.7610°
argument of perigee: 243.8644°
revolutions per day: 11.27566961
mean anomaly at epoch: 283.7237°
orbit number at epoch: 92669

The dashed part of the orbit path shows where the satellite is in the earth's shadow,  

DLR